Weather History for Bentonville, AR

Change the Weather History Date:

Saturday, January 21, 2012

  Actual Average Record
Temperature  
Mean Temperature 32 °F -  
Max Temperature 44 °F 42 °F 74 °F (1986)
Min Temperature 19 °F 23 °F -12 °F (1985)
Degree Days  
Heating Degree Days 34    
Moisture  
Dew Point 20 °F    
Average Humidity 67    
Maximum Humidity 86    
Minimum Humidity 46    
Precipitation  
Precipitation 0.00 in - - ()
Sea Level Pressure  
Sea Level Pressure 30.03 in    
Wind  
Wind Speed 9 mph (NE)    
Max Wind Speed 16 mph    
Max Gust Speed 20 mph    
Visibility 10 miles    
Events      
Averages and records for this station are not official NWS values.
T = Trace of Precipitation, MM = Missing Value Source: NWS Daily Summary

Daily Weather History Graph

Daily Weather History Graph

Search for Another Location

Airport:

Trip Planner

Search our weather history database for the weather conditions in past years. The results will help you decide how hot, cold, wet, or windy it might be!

Date:

Astronomy

Jan. 21, 2012 Rise Set
Actual Time 7:25 AM CST 5:31 PM CST
Civil Twilight 6:57 AM CST 5:58 PM CST
Nautical Twilight 6:26 AM CST 6:30 PM CST
Astronomical Twilight 5:55 AM CST 7:00 PM CST
Moon 5:55 AM CST (1/21) 4:08 PM CST (1/21)
Length of Visible Light 11h 01m
Length of Day
10h 05m
Waning Crescent, 3% of the Moon is Illuminated
Jan 21
Waning Crescent
Jan 23
New
Jan 30
First Quarter
Feb 7
Full
Feb 14
Last Quarter

Hourly Weather History & Observations

Time (CST) Temp. Windchill Dew Point Humidity Pressure Visibility Wind Dir Wind Speed Gust Speed Precip Events Conditions
12:15 AM 30.2 °F 21.3 °F 26.6 °F 86% 30.00 in 3.0 mi North 10.4 mph - N/A   Overcast
12:35 AM 28.4 °F 18.5 °F 24.8 °F 86% 30.01 in 5.0 mi North 11.5 mph - N/A   Overcast
12:55 AM 28.4 °F 18.5 °F 24.8 °F 86% 30.00 in 6.0 mi NNE 11.5 mph 16.1 mph N/A   Overcast
1:15 AM 28.4 °F 20.4 °F 24.8 °F 86% 30.01 in 7.0 mi North 8.1 mph - N/A   Overcast
1:35 AM 28.4 °F 17.5 °F 21.2 °F 74% 30.02 in 8.0 mi North 13.8 mph - N/A   Overcast
1:55 AM 26.6 °F 16.2 °F 21.2 °F 80% 30.02 in 9.0 mi North 11.5 mph - N/A   Overcast
2:15 AM 26.6 °F 15.2 °F 19.4 °F 74% 30.03 in 10.0 mi North 13.8 mph - N/A   Overcast
2:35 AM 26.6 °F 14.3 °F 19.4 °F 74% 30.04 in 10.0 mi North 16.1 mph - N/A   Overcast
2:55 AM 24.8 °F 12.9 °F 19.4 °F 80% 30.04 in 10.0 mi NNE 13.8 mph 19.6 mph N/A   Overcast
3:15 AM 24.8 °F 14.6 °F 17.6 °F 74% 30.04 in 10.0 mi North 10.4 mph - N/A   Mostly Cloudy
3:35 AM 24.8 °F 14.0 °F 17.6 °F 74% 30.04 in 10.0 mi North 11.5 mph - N/A   Partly Cloudy
3:55 AM 23.0 °F 11.7 °F 15.8 °F 74% 30.03 in 10.0 mi North 11.5 mph - N/A   Clear
4:15 AM 23.0 °F 13.9 °F 15.8 °F 74% 30.01 in 10.0 mi NNE 8.1 mph - N/A   Clear
4:35 AM 21.2 °F 11.7 °F 15.8 °F 80% 30.03 in 10.0 mi North 8.1 mph - N/A   Clear
4:55 AM 21.2 °F 11.7 °F 15.8 °F 80% 30.03 in 10.0 mi North 8.1 mph - N/A   Clear
5:15 AM 21.2 °F 11.7 °F 14.0 °F 74% 30.05 in 10.0 mi North 8.1 mph - N/A   Clear
5:35 AM 21.2 °F 9.5 °F 14.0 °F 74% 30.06 in 10.0 mi North 11.5 mph - N/A   Clear
5:55 AM 21.2 °F 10.1 °F 12.2 °F 68% 30.06 in 10.0 mi North 10.4 mph - N/A   Clear
6:15 AM 19.4 °F 9.5 °F 12.2 °F 74% 30.07 in 10.0 mi North 8.1 mph - N/A   Clear
6:35 AM 19.4 °F 9.5 °F 12.2 °F 74% 30.05 in 10.0 mi NNE 8.1 mph - N/A   Clear
6:55 AM 19.4 °F 10.4 °F 12.2 °F 74% 30.05 in 10.0 mi NE 6.9 mph - N/A   Clear
7:15 AM 19.4 °F 11.5 °F 12.2 °F 74% 30.06 in 10.0 mi NE 5.8 mph - N/A   Clear
7:35 AM 19.4 °F 10.4 °F 14.0 °F 80% 30.06 in 10.0 mi NE 6.9 mph - N/A   Clear
7:55 AM 19.4 °F 10.4 °F 14.0 °F 80% 30.07 in 10.0 mi NNE 6.9 mph - N/A   Clear
8:15 AM 19.4 °F 7.9 °F 14.0 °F 80% 30.09 in 10.0 mi NNE 10.4 mph - N/A   Clear
8:35 AM 21.2 °F 10.9 °F 15.8 °F 80% 30.10 in 10.0 mi NE 9.2 mph - N/A   Clear
8:55 AM 21.2 °F 12.6 °F 15.8 °F 80% 30.10 in 10.0 mi NNE 6.9 mph - N/A   Clear
9:15 AM 23.0 °F 13.9 °F 15.8 °F 74% 30.10 in 10.0 mi NE 8.1 mph - N/A   Clear
9:35 AM 24.8 °F 16.1 °F 15.8 °F 69% 30.10 in 10.0 mi ENE 8.1 mph - N/A   Clear
10:15 AM 26.6 °F 19.1 °F 17.6 °F 69% 30.10 in 10.0 mi East 6.9 mph - N/A   Clear
10:35 AM 28.4 °F 19.1 °F 17.6 °F 64% 30.10 in 10.0 mi East 10.4 mph - N/A   Clear
10:55 AM 28.4 °F 20.4 °F 17.6 °F 64% 30.09 in 10.0 mi ENE 8.1 mph - N/A   Clear
11:15 AM 30.2 °F 23.4 °F 19.4 °F 64% 30.09 in 10.0 mi East 6.9 mph - N/A   Clear
11:35 AM 32.0 °F 25.6 °F 19.4 °F 60% 30.08 in 10.0 mi East 6.9 mph - N/A   Clear
11:55 AM 33.8 °F 30.8 °F 19.4 °F 56% 30.07 in 10.0 mi ENE 3.5 mph - N/A   Clear
12:15 PM 33.8 °F 29.6 °F 19.4 °F 56% 30.06 in 10.0 mi ESE 4.6 mph - N/A   Clear
12:35 PM 35.6 °F 30.7 °F 21.2 °F 56% 30.05 in 10.0 mi SE 5.8 mph - N/A   Clear
12:55 PM 35.6 °F 31.7 °F 21.2 °F 56% 30.05 in 10.0 mi ESE 4.6 mph - N/A   Clear
1:15 PM 37.4 °F 34.9 °F 23.0 °F 56% 30.04 in 10.0 mi SSE 3.5 mph - N/A   Clear
1:35 PM 39.2 °F 35.0 °F 23.0 °F 52% 30.03 in 10.0 mi SE 5.8 mph - N/A   Clear
1:55 PM 39.2 °F 35.9 °F 24.8 °F 56% 30.01 in 10.0 mi ESE 4.6 mph - N/A   Clear
2:15 PM 41.0 °F 37.1 °F 23.0 °F 49% 30.00 in 10.0 mi East 5.8 mph - N/A   Clear
2:35 PM 42.8 °F 39.3 °F 24.8 °F 49% 29.99 in 10.0 mi SE 5.8 mph - N/A   Clear
2:55 PM 42.8 °F 38.6 °F 24.8 °F 49% 29.98 in 10.0 mi ESE 6.9 mph - N/A   Clear
3:15 PM 42.8 °F 40.1 °F 24.8 °F 49% 29.98 in 10.0 mi SE 4.6 mph - N/A   Clear
3:35 PM 44.6 °F 42.2 °F 26.6 °F 49% 29.97 in 10.0 mi SE 4.6 mph - N/A   Clear
3:55 PM 44.6 °F - 24.8 °F 46% 29.96 in 9.0 mi Calm Calm - N/A   Clear
4:15 PM 44.6 °F 42.2 °F 26.6 °F 49% 29.95 in 10.0 mi East 4.6 mph - N/A   Clear
4:35 PM 44.6 °F 40.2 °F 26.6 °F 49% 29.93 in 10.0 mi East 8.1 mph - N/A   Clear
4:55 PM 42.8 °F 38.0 °F 24.8 °F 49% 29.92 in 10.0 mi ENE 8.1 mph - N/A   Clear
5:15 PM 41.0 °F 37.1 °F 24.8 °F 53% 29.92 in 10.0 mi East 5.8 mph - N/A   Clear
5:35 PM 39.2 °F 35.0 °F 24.8 °F 56% 29.92 in 10.0 mi East 5.8 mph - N/A   Clear
5:55 PM 39.2 °F 35.0 °F 24.8 °F 56% 29.92 in 10.0 mi East 5.8 mph - N/A   Clear
6:15 PM 37.4 °F 32.8 °F 24.8 °F 60% 29.91 in 10.0 mi East 5.8 mph - N/A   Clear
6:35 PM 37.4 °F 33.8 °F 24.8 °F 60% 29.91 in 10.0 mi East 4.6 mph - N/A   Clear
7:35 PM 35.6 °F 29.9 °F 26.6 °F 70% 29.90 in 10.0 mi ESE 6.9 mph - N/A   Clear
7:55 PM 35.6 °F 28.6 °F 26.6 °F 70% 29.90 in 10.0 mi ESE 9.2 mph - N/A   Clear
8:15 PM 35.6 °F 29.9 °F 26.6 °F 70% 29.90 in 10.0 mi ESE 6.9 mph - N/A   Clear
8:35 PM 33.8 °F 27.0 °F 26.6 °F 75% 29.90 in 10.0 mi ESE 8.1 mph - N/A   Clear
9:15 PM 33.8 °F 27.0 °F 26.6 °F 75% 29.88 in 10.0 mi SE 8.1 mph - N/A   Clear
9:35 PM 35.6 °F 28.6 °F 26.6 °F 70% 29.87 in 10.0 mi ESE 9.2 mph - N/A   Clear
9:55 PM 35.6 °F 29.2 °F 26.6 °F 70% 29.85 in 10.0 mi SE 8.1 mph - N/A   Clear
10:15 PM 35.6 °F 27.1 °F 28.4 °F 75% 29.84 in 10.0 mi SE 12.7 mph - N/A   Clear
10:35 PM 35.6 °F 29.9 °F 28.4 °F 75% 29.85 in 10.0 mi SSE 6.9 mph - N/A   Mostly Cloudy
10:55 PM 37.4 °F 30.3 °F 28.4 °F 70% 29.83 in 10.0 mi SE 10.4 mph - N/A   Overcast
11:15 PM 37.4 °F 30.3 °F 30.2 °F 75% 29.83 in 10.0 mi SE 10.4 mph - N/A   Overcast
11:35 PM 37.4 °F 30.3 °F 30.2 °F 75% 29.81 in 10.0 mi SE 10.4 mph - N/A   Overcast